This is the latest recevied weather packets stored in our database for station/object KK4WXG. If no packets are shown the sender has not sent any weather packets the latest 1 day(s).
| Time | Temp. | Humidity | Pressure | Rain* | Wind** | Luminosity | Snow |
|---|---|---|---|---|---|---|---|
| 1778042464 | 21.11° C | 48% | 1009.6 hPa | 0 mm | 5.36 m/s, 213° | 0 W/m² | - |
| 1778042161 | 21.11° C | 48% | 1009.7 hPa | 0 mm | 4.02 m/s, 210° | 0 W/m² | - |
| 1778041859 | 21.67° C | 47% | 1009.8 hPa | 0 mm | 4.47 m/s, 206° | 0 W/m² | - |
| 1778041558 | 21.67° C | 47% | 1009.6 hPa | 0 mm | 3.58 m/s, 203° | 0 W/m² | - |
| 1778041256 | 21.11° C | 47% | 1009.6 hPa | 0 mm | 2.68 m/s, 201° | 0 W/m² | - |
| 1778040954 | 21.11° C | 47% | 1009.8 hPa | 0 mm | 5.36 m/s, 202° | 0 W/m² | - |
| 1778040651 | 21.11° C | 46% | 1009.5 hPa | 0 mm | 2.24 m/s, 204° | 0 W/m² | - |
| 1778040349 | 21.11° C | 46% | 1010 hPa | 0 mm | 3.13 m/s, 188° | 0 W/m² | - |
| 1778040044 | 20.56° C | 45% | 1009.8 hPa | 0 mm | 4.02 m/s, 203° | 0 W/m² | - |
| 1778039742 | 21.11° C | 45% | 1009.6 hPa | 0 mm | 2.24 m/s, 200° | 0 W/m² | - |
| 1778039438 | 21.11° C | 44% | 1009.6 hPa | 0 mm | 4.02 m/s, 208° | 0 W/m² | - |
| 1778039145 | 21.11° C | 43% | 1009.4 hPa | 0 mm | 3.13 m/s, 204° | 0 W/m² | - |
| 1778038832 | 21.11° C | 44% | 1009.6 hPa | 0 mm | 2.68 m/s, 204° | 0 W/m² | - |
| 1778038530 | 21.11° C | 44% | 1009.7 hPa | 0 mm | 2.24 m/s, 208° | 0 W/m² | - |
| 1778038226 | 21.11° C | 44% | 1009.6 hPa | 0 mm | 1.79 m/s, 202° | 0 W/m² | - |
| 1778037924 | 21.11° C | 44% | 1009.4 hPa | 0 mm | 2.68 m/s, 216° | 0 W/m² | - |
| 1778037620 | 21.11° C | 44% | 1009.5 hPa | 0 mm | 2.68 m/s, 203° | 0 W/m² | - |
| 1778037319 | 20.56° C | 44% | 1009.4 hPa | 0 mm | 1.79 m/s, 202° | 0 W/m² | - |
| 1778037015 | 21.11° C | 43% | 1009.4 hPa | 0 mm | 2.68 m/s, 203° | 0 W/m² | - |
| 1778036713 | 21.11° C | 44% | 1009.5 hPa | 0 mm | 1.79 m/s, 205° | 0 W/m² | - |
| 1778036410 | 21.11° C | 43% | 1009.5 hPa | 0 mm | 2.68 m/s, 203° | 0 W/m² | - |
| 1778036107 | 21.11° C | 43% | 1009.5 hPa | 0 mm | 1.79 m/s, 202° | 0 W/m² | - |
| 1778035803 | 21.67° C | 42% | 1009.6 hPa | 0 mm | 3.13 m/s, 214° | 0 W/m² | - |
| 1778035500 | 21.67° C | 41% | 1009.6 hPa | 0 mm | 5.36 m/s, 203° | 0 W/m² | - |
| 1778035196 | 21.67° C | 42% | 1009.4 hPa | 0 mm | 2.24 m/s, 212° | 0 W/m² | - |
* Rain latest hour (hover to see other rain measurements)
** Current wind speed in m/s (hover to see current wind gust speed)